QPF
0.00 0.00 0.00 0.00 0.00 0.00 0.00 0.00 0.00 0.00 0.00 0.00 0.00 0.00 0.00 0.00 0.00 0.00 0.00 0.00 0.00 0.00 0.00 0.00 0.00 0.00 0.00 0.00 0.00 0.00 0.00 0.00 0.00 0.00 0.00 0.00 0.00 0.00 0.00 0.00 0.00 0.00 0.01
0.00 0.00 0.00 0.00 0.00 0.00 0.00 0.00 0.00 0.00 0.00 0.00 0.00 0.00 0.00 0.00 0.00 0.00 0.00 0.00 0.00 0.00 0.00 0.00 0.00 0.00 0.00 0.00 0.00 0.00 0.00 0.00 0.01 0.00 0.00 0.00 0.00 0.00 0.00 0.01 0.00 0.00 0.00
0.00 0.00 0.00 0.00 0.00 0.00 0.00 0.00 0.00 0.00 0.00 0.00 0.00 0.00 0.00 0.00 0.00 0.00 0.00 0.00 0.00 0.00 0.00 0.00 0.00 0.00 0.00 0.00 0.00 0.00 0.00 0.00 0.01 0.01 0.01 0.00 0.00 0.00 0.00 0.01 0.00 0.00 0.00
0.00 0.00 0.00 0.00 0.00 0.00 0.00 0.00 0.00 0.00 0.00 0.00 0.00 0.00 0.00 0.00 0.00 0.00 0.00 0.00 0.00 0.00 0.00 0.00 0.00 0.00 0.00 0.00 0.00 0.00 0.00 0.00 0.00 0.00 0.00 0.00 0.01 0.00 0.01 0.01 0.00 0.00 0.00
0.00 0.00 0.00 0.00 0.00 0.00 0.00 0.00 0.00 0.00 0.00 0.00 0.00 0.00 0.00 0.00 0.00 0.00 0.00 0.00 0.00 0.00 0.00 0.00 0.00 0.00 0.00 0.00 0.00 0.00 0.00 0.00 0.00 0.00 0.00 0.00 0.00 0.00 0.00 0.00 0.00 0.00 0.00
0.00 0.00 0.00 0.00 0.00 0.00 0.00 0.00 0.00 0.00 0.00 0.00 0.00 0.00 0.00 0.00 0.00 0.00 0.00 0.00 0.00 0.00 0.00 0.00 0.00 0.00 0.00 0.00 0.00 0.00 0.00 0.00 0.00 0.00 0.00 0.00 0.00 0.00 0.00 0.00 0.00 0.00 0.00
0.00 0.00 0.00 0.00 0.00 0.00 0.00 0.00 0.00 0.00 0.00 0.00 0.00 0.00 0.00 0.00 0.00 0.00 0.00 0.00 0.00 0.00 0.00 0.00 0.00 0.00 0.00 0.00 0.00 0.00 0.00 0.00 0.00 0.00 0.00 0.00 0.00 0.00 0.01 0.01 0.01 0.00 0.00
0.00 0.00 0.00 0.00 0.00 0.00 0.00 0.00 0.00 0.00 0.00 0.00 0.00 0.00 0.00 0.00 0.00 0.00 0.00 0.00 0.00 0.00 0.00 0.00 0.00 0.00 0.00 0.00 0.00 0.00 0.00 0.00 0.00 0.00 0.01 0.00 0.00 0.00 0.01 0.01 0.02 0.02 0.01
0.00 0.00 0.00 0.00 0.00 0.00 0.00 0.00 0.00 0.00 0.00 0.00 0.00 0.00 0.00 0.00 0.00 0.00 0.00 0.00 0.00 0.00 0.00 0.00 0.00 0.00 0.00 0.00 0.00 0.00 0.00 0.00 0.00 0.00 0.01 0.01 0.01 0.00 0.00 0.01 0.01 0.01 0.00
0.00 0.00 0.00 0.00 0.00 0.00 0.00 0.00 0.00 0.00 0.00 0.00 0.00 0.00 0.00 0.00 0.00 0.00 0.00 0.00 0.00 0.00 0.00 0.00 0.00 0.00 0.00 0.00 0.00 0.00 0.00 0.00 0.00 0.00 0.00 0.00 0.00 0.00 0.00 0.00 0.00 0.00 0.00
0.00 0.00 0.00 0.00 0.00 0.00 0.00 0.00 0.00 0.00 0.00 0.00 0.00 0.00 0.00 0.00 0.00 0.00 0.00 0.00 0.00 0.00 0.00 0.00 0.00 0.00 0.00 0.00 0.00 0.00 0.00 0.00 0.00 0.00 0.00 0.00 0.00 0.00 0.00 0.00 0.00 0.00 0.00
0.00 0.00 0.00 0.00 0.00 0.00 0.00 0.00 0.00 0.00 0.00 0.00 0.00 0.00 0.00 0.00 0.00 0.00 0.00 0.00 0.00 0.00 0.00 0.00 0.00 0.00 0.00 0.00 0.00 0.00 0.00 0.00 0.00 0.00 0.00 0.00 0.00 0.01 0.00 0.01 0.00 0.00 0.00
0.00 0.00 0.00 0.00 0.00 0.00 0.00 0.00 0.00 0.00 0.00 0.00 0.00 0.00 0.00 0.00 0.00 0.00 0.00 0.00 0.00 0.00 0.00 0.00 0.00 0.00 0.00 0.00 0.00 0.00 0.00 0.00 0.00 0.00 0.00 0.00 0.01 0.06 0.05 0.03 0.01 0.03 0.03
0.00 0.00 0.00 0.00 0.00 0.00 0.00 0.00 0.00 0.00 0.00 0.00 0.00 0.00 0.00 0.00 0.00 0.00 0.00 0.00 0.00 0.00 0.00 0.00 0.00 0.00 0.00 0.00 0.00 0.00 0.00 0.00 0.00 0.00 0.00 0.00 0.02 0.06 0.10 0.06 0.01 0.02 0.02
0.00 0.00 0.00 0.00 0.00 0.00 0.00 0.00 0.00 0.00 0.00 0.00 0.00 0.00 0.00 0.00 0.00 0.00 0.00 0.00 0.00 0.00 0.00 0.00 0.00 0.00 0.00 0.00 0.00 0.00 0.00 0.00 0.00 0.00 0.00 0.00 0.00 0.02 0.02 0.05 0.04 0.07 0.02
0.00 0.00 0.00 0.00 0.00 0.00 0.00 0.00 0.00 0.00 0.00 0.00 0.00 0.00 0.00 0.00 0.00 0.00 0.00 0.00 0.00 0.00 0.00 0.00 0.00 0.00 0.00 0.00 0.00 0.00 0.01 0.00 0.00 0.00 0.00 0.00 0.00 0.00 0.03 0.09 0.09 0.07 0.04
0.00 0.00 0.00 0.00 0.00 0.00 0.00 0.00 0.00 0.00 0.00 0.00 0.00 0.00 0.00 0.00 0.00 0.00 0.00 0.00 0.00 0.00 0.00 0.00 0.00 0.00 0.00 0.00 0.00 0.00 0.00 0.00 0.01 0.00 0.00 0.00 0.00 0.00 0.02 0.08 0.08 0.06 0.02
0.00 0.00 0.00 0.00 0.00 0.00 0.00 0.00 0.00 0.00 0.00 0.00 0.00 0.00 0.00 0.00 0.00 0.00 0.00 0.00 0.00 0.00 0.00 0.00 0.00 0.00 0.00 0.00 0.00 0.00 0.00 0.01 0.01 0.01 0.00 0.00 0.00 0.01 0.01 0.08 0.05 0.03 0.02
0.00 0.00 0.00 0.00 0.00 0.00 0.00 0.00 0.00 0.00 0.00 0.00 0.00 0.00 0.00 0.00 0.00 0.00 0.00 0.00 0.00 0.00 0.00 0.00 0.00 0.00 0.00 0.01 0.00 0.00 0.00 0.00 0.00 0.00 0.00 0.00 0.01 0.02 0.04 0.08 0.04 0.03 0.02
0.00 0.00 0.00 0.00 0.00 0.00 0.00 0.00 0.00 0.00 0.00 0.00 0.00 0.00 0.00 0.00 0.00 0.00 0.00 0.00 0.00 0.00 0.00 0.00 0.00 0.00 0.00 0.00 0.01 0.01 0.00 0.00 0.01 0.00 0.00 0.00 0.00 0.02 0.05 0.06 0.05 0.04 0.06
0.00 0.00 0.00 0.00 0.00 0.00 0.00 0.00 0.00 0.00 0.00 0.00 0.00 0.00 0.00 0.00 0.00 0.00 0.00 0.00 0.00 0.00 0.00 0.00 0.00 0.00 0.00 0.00 0.00 0.00 0.00 0.01 0.01 0.01 0.01 0.00 0.00 0.00 0.01 0.02 0.03 0.02 0.03
0.00 0.00 0.00 0.00 0.00 0.00 0.00 0.00 0.00 0.00 0.00 0.00 0.00 0.00 0.00 0.00 0.00 0.00 0.00 0.00 0.00 0.00 0.00 0.00 0.00 0.00 0.00 0.00 0.00 0.00 0.00 0.00 0.00 0.01 0.03 0.03 0.01 0.00 0.00 0.00 0.00 0.01 0.03
0.00 0.00 0.00 0.00 0.00 0.00 0.00 0.00 0.00 0.00 0.00 0.00 0.00 0.00 0.00 0.00 0.00 0.00 0.00 0.00 0.00 0.00 0.00 0.00 0.00 0.00 0.00 0.00 0.00 0.00 0.00 0.00 0.00 0.00 0.02 0.03 0.10 0.04 0.02 0.03 0.04 0.02 0.06
0.00 0.00 0.00 0.00 0.00 0.00 0.00 0.00 0.00 0.00 0.00 0.00 0.00 0.00 0.00 0.00 0.00 0.00 0.00 0.00 0.00 0.00 0.00 0.00 0.00 0.00 0.00 0.00 0.00 0.00 0.00 0.00 0.00 0.00 0.00 0.03 0.08 0.11 0.05 0.06 0.21 0.15 0.14
0.00 0.00 0.00 0.00 0.00 0.00 0.00 0.00 0.00 0.00 0.00 0.00 0.00 0.00 0.00 0.00 0.00 0.00 0.00 0.00 0.00 0.00 0.00 0.00 0.00 0.00 0.00 0.00 0.00 0.00 0.00 0.00 0.00 0.00 0.00 0.02 0.07 0.14 0.15 0.06 0.13 0.12 0.11
0.00 0.00 0.00 0.00 0.00 0.00 0.00 0.00 0.00 0.00 0.00 0.00 0.00 0.00 0.00 0.00 0.00 0.00 0.00 0.00 0.00 0.00 0.00 0.00 0.00 0.00 0.00 0.00 0.00 0.00 0.00 0.00 0.00 0.00 0.01 0.01 0.01 0.05 0.13 0.15 0.08 0.06 0.02
MSLP
1012.05 1012.18 1012.40 1012.62 1012.76 1012.90 1012.99 1012.96 1013.01 1012.99 1013.05 1013.16 1013.20 1013.24 1013.23 1013.07 1012.88 1012.85 1012.76 1012.53 1012.40 1012.28 1012.01 1011.68 1011.39 1011.14 1011.07 1010.51 1009.94 1010.05 1009.35 1008.54 1006.97 1006.22 1005.92 1005.16 1004.53 1004.11 1003.28 1002.73 1002.58 1003.08 1003.23
1012.12 1012.28 1012.49 1012.58 1012.67 1012.80 1012.93 1012.99 1012.89 1012.92 1012.84 1012.83 1012.78 1012.80 1012.77 1012.57 1012.43 1012.43 1012.30 1012.05 1012.02 1011.78 1011.32 1011.05 1010.75 1010.34 1010.01 1009.92 1009.92 1009.69 1009.00 1008.74 1007.52 1006.40 1006.18 1005.17 1004.45 1003.86 1003.42 1003.17 1002.58 1002.35 1002.52
1012.58 1012.74 1012.84 1012.87 1012.85 1012.94 1012.94 1012.84 1012.91 1012.89 1012.65 1012.42 1012.42 1012.51 1012.37 1012.10 1011.92 1011.78 1011.45 1011.16 1011.09 1010.81 1010.43 1010.09 1009.77 1009.49 1009.03 1008.87 1008.84 1008.65 1008.57 1008.13 1007.37 1006.72 1006.00 1005.40 1004.47 1003.52 1002.59 1002.95 1002.44 1001.75 1001.93
1013.17 1013.17 1013.06 1012.97 1012.82 1012.82 1012.81 1012.78 1012.75 1012.64 1012.61 1012.55 1012.45 1012.30 1012.04 1011.74 1011.54 1011.24 1010.88 1010.69 1010.52 1010.14 1009.72 1009.39 1009.12 1008.78 1008.46 1008.29 1008.22 1008.03 1007.75 1007.34 1006.86 1006.41 1005.79 1005.43 1004.79 1003.60 1002.80 1002.94 1002.45 1001.67 1001.71
1013.92 1013.69 1013.35 1012.94 1012.70 1012.68 1012.62 1012.58 1012.57 1012.82 1012.81 1012.62 1012.39 1012.03 1011.64 1011.49 1011.19 1010.90 1010.66 1010.35 1009.99 1009.49 1008.98 1008.51 1008.02 1007.67 1007.37 1007.18 1007.11 1006.86 1006.70 1006.51 1006.30 1006.00 1005.50 1005.12 1004.49 1003.84 1002.65 1002.44 1002.23 1001.47 1001.11
1014.54 1014.24 1013.69 1013.18 1013.02 1013.00 1012.97 1013.02 1013.00 1012.93 1012.65 1012.42 1012.06 1011.67 1011.49 1011.06 1010.61 1010.22 1009.99 1009.66 1009.08 1008.47 1007.74 1007.08 1006.70 1006.27 1006.08 1006.08 1005.97 1005.82 1005.76 1005.55 1005.48 1005.34 1004.98 1004.53 1004.13 1003.79 1003.07 1002.46 1001.83 1001.43 1001.54
1014.92 1014.52 1014.26 1013.97 1013.72 1013.64 1013.40 1013.23 1013.11 1012.78 1012.44 1012.08 1011.66 1011.43 1011.03 1010.54 1009.97 1009.50 1009.02 1008.64 1007.87 1007.27 1006.66 1005.95 1005.44 1004.99 1004.78 1004.78 1004.84 1004.81 1004.66 1004.33 1004.19 1004.18 1003.99 1003.79 1003.48 1003.16 1003.04 1002.67 1001.77 1001.09 1000.85
1015.52 1015.24 1014.90 1014.56 1014.18 1013.90 1013.62 1013.32 1012.98 1012.54 1012.22 1011.81 1011.39 1010.89 1010.49 1009.93 1009.29 1008.79 1008.25 1007.83 1006.98 1006.11 1005.33 1004.70 1004.14 1003.64 1003.33 1003.58 1003.66 1003.76 1003.61 1003.41 1003.10 1002.91 1002.66 1002.60 1002.55 1002.38 1002.25 1002.00 1001.85 1001.04 1000.06
1016.15 1015.88 1015.50 1015.11 1014.60 1014.16 1013.66 1013.25 1012.76 1012.43 1012.03 1011.54 1011.08 1010.58 1010.10 1009.34 1008.65 1008.17 1008.09 1007.35 1006.37 1005.34 1004.30 1003.27 1002.38 1001.90 1001.54 1002.05 1002.52 1002.33 1002.21 1001.89 1001.73 1001.64 1001.59 1001.55 1001.43 1001.26 1001.33 1001.44 1000.99 1000.92 1000.07
1016.60 1016.21 1015.82 1015.33 1014.83 1014.23 1013.63 1013.08 1012.57 1012.20 1011.78 1011.33 1010.90 1010.49 1009.80 1009.08 1008.49 1008.24 1008.05 1007.07 1005.85 1004.92 1003.82 1002.63 1001.60 1000.84 1000.30 1000.61 1001.09 1001.03 1000.83 1000.30 1000.39 1000.46 1000.44 1000.41 1000.32 1000.24 999.95 1000.66 1000.67 1000.02 999.47
1016.88 1016.49 1015.93 1015.34 1014.75 1014.01 1013.43 1012.92 1012.48 1011.95 1011.51 1011.21 1010.86 1010.22 1009.66 1009.27 1008.72 1008.07 1007.25 1006.82 1006.23 1005.01 1003.41 1001.72 1000.53 999.78 999.42 999.29 999.27 999.43 999.27 999.09 999.26 999.51 999.59 999.54 999.50 999.29 998.98 999.10 999.24 999.12 998.96
1016.97 1016.58 1015.97 1015.44 1014.85 1014.16 1013.58 1012.91 1012.20 1011.88 1011.56 1011.23 1010.71 1010.21 1009.75 1009.55 1008.87 1007.90 1007.06 1006.40 1005.53 1004.54 1002.57 1000.69 999.39 998.58 998.14 997.84 997.75 997.56 997.89 998.10 998.37 998.43 998.56 998.49 998.38 998.25 998.07 997.78 997.62 997.97 997.98
1016.94 1016.64 1016.17 1015.63 1014.93 1014.30 1013.69 1013.40 1012.89 1012.54 1012.33 1011.74 1011.17 1010.72 1010.32 1009.69 1008.75 1008.00 1007.15 1006.03 1004.53 1003.41 1001.46 999.73 998.39 997.42 997.06 996.73 996.56 996.75 997.13 997.31 997.22 997.33 997.12 997.10 997.05 997.08 996.74 996.51 996.62 997.05 997.32
1016.94 1016.71 1016.31 1015.76 1015.14 1014.49 1014.22 1013.83 1013.90 1013.57 1013.12 1012.44 1011.75 1011.67 1011.12 1010.26 1009.35 1008.59 1007.81 1006.41 1004.41 1002.52 1000.82 999.04 997.67 996.84 996.40 996.21 996.10 996.12 996.21 996.17 996.16 996.06 995.95 996.07 996.18 995.89 995.49 995.56 996.07 996.46 996.97
1016.91 1016.72 1016.37 1015.85 1015.47 1015.07 1014.64 1014.46 1014.40 1014.15 1013.86 1013.26 1012.76 1012.65 1012.10 1011.03 1010.33 1009.80 1008.81 1006.88 1005.04 1003.31 1001.07 999.29 998.05 996.83 996.25 995.81 995.76 995.63 995.42 995.46 995.56 995.55 995.48 995.53 995.36 995.22 995.30 995.25 995.46 995.79 996.38
1016.80 1016.54 1016.36 1016.09 1015.87 1015.52 1015.20 1014.66 1014.36 1014.23 1013.77 1013.44 1013.15 1012.96 1012.54 1012.01 1010.88 1009.51 1007.74 1006.25 1004.88 1003.41 1001.89 1001.12 999.76 998.67 997.41 996.16 995.65 995.17 994.72 994.79 995.00 995.21 995.22 995.27 995.13 995.20 995.24 995.28 995.37 995.55 996.12
1016.64 1016.31 1016.20 1015.94 1015.85 1015.56 1015.19 1014.80 1014.36 1014.01 1013.71 1013.54 1013.17 1012.77 1012.46 1011.93 1010.87 1009.65 1008.32 1006.96 1005.69 1003.81 1003.61 1002.97 1001.76 1000.63 999.47 998.22 996.83 996.00 994.98 994.08 994.02 994.61 994.70 994.81 994.88 994.87 995.06 994.82 994.64 995.18 996.02
1016.49 1016.17 1015.85 1015.67 1015.66 1015.51 1015.25 1014.87 1014.47 1014.00 1013.72 1013.55 1013.33 1012.93 1012.29 1011.86 1011.21 1010.24 1009.20 1007.84 1005.94 1005.54 1005.53 1004.83 1003.82 1002.57 1001.45 1000.29 999.13 997.82 996.46 995.18 994.36 994.10 994.45 994.61 994.45 994.06 994.20 994.17 994.35 995.02 995.78
1016.64 1016.37 1015.97 1015.72 1015.72 1015.49 1015.33 1015.12 1014.78 1014.52 1014.41 1014.25 1013.84 1013.07 1012.61 1012.20 1011.62 1010.95 1010.05 1009.32 1008.88 1008.13 1007.22 1006.24 1005.48 1004.41 1002.96 1002.20 1001.15 1000.05 999.11 997.91 996.25 995.37 994.83 994.62 994.32 993.88 993.92 994.06 994.38 994.79 995.59
1016.95 1016.73 1016.56 1016.46 1016.32 1016.05 1015.71 1015.43 1015.10 1014.86 1014.68 1014.53 1014.29 1013.86 1013.09 1012.54 1011.69 1011.20 1010.97 1010.64 1010.14 1009.61 1008.80 1007.70 1006.63 1005.59 1004.40 1003.73 1002.84 1002.20 1000.90 999.55 998.42 997.13 995.89 995.10 994.60 994.06 993.44 993.56 994.46 995.13 995.73
1017.67 1017.50 1017.49 1017.37 1017.27 1017.01 1016.64 1016.47 1016.08 1015.62 1015.31 1015.06 1014.81 1014.48 1014.11 1013.59 1013.41 1012.83 1012.29 1011.75 1011.22 1010.66 1010.01 1009.05 1007.92 1006.90 1005.90 1005.15 1004.19 1003.30 1002.46 1001.48 1000.52 999.34 998.22 996.75 995.58 995.08 994.74 994.53 994.43 995.04 995.99
1018.50 1018.50 1018.48 1018.47 1018.22 1018.05 1017.81 1017.49 1017.25 1016.75 1016.28 1016.00 1015.54 1015.06 1014.72 1014.44 1014.14 1013.92 1013.38 1012.71 1012.18 1011.71 1010.97 1010.16 1009.28 1008.49 1007.71 1006.93 1005.95 1004.58 1003.69 1002.82 1001.64 1000.60 999.98 998.59 996.69 996.12 995.56 994.87 995.14 995.43 996.24
1019.33 1019.39 1019.53 1019.46 1019.34 1019.18 1018.89 1018.60 1018.38 1017.98 1017.43 1017.02 1016.62 1016.09 1015.63 1015.53 1015.13 1014.79 1014.30 1013.72 1012.88 1012.19 1011.62 1010.93 1010.09 1009.21 1008.69 1008.38 1007.81 1006.62 1005.37 1004.16 1003.71 1002.53 1001.01 999.30 997.93 997.04 996.68 996.39 996.02 996.25 997.00
1020.06 1020.37 1020.61 1020.50 1020.36 1020.17 1019.95 1019.71 1019.52 1019.12 1018.54 1018.14 1017.71 1017.19 1016.66 1016.40 1016.02 1015.55 1015.04 1014.39 1013.67 1012.87 1012.16 1011.58 1011.02 1010.32 1009.36 1009.00 1008.89 1008.11 1007.09 1006.06 1004.20 1003.13 1001.71 1000.19 998.58 997.50 996.54 997.03 996.82 996.97 997.47
1020.77 1021.03 1021.19 1021.15 1021.10 1020.86 1020.63 1020.48 1020.39 1020.02 1019.56 1019.13 1018.66 1018.17 1017.58 1017.07 1016.75 1016.28 1015.82 1015.11 1014.34 1013.55 1012.74 1012.15 1011.63 1010.98 1010.24 1009.36 1009.07 1008.54 1007.59 1005.95 1005.04 1002.91 1002.19 1000.77 999.41 998.01 997.49 996.36 997.04 997.19 997.98
1021.08 1021.24 1021.43 1021.50 1021.56 1021.41 1021.21 1021.16 1021.03 1020.71 1020.28 1019.88 1019.44 1018.90 1018.33 1017.77 1017.32 1016.93 1016.44 1015.78 1014.96 1014.21 1013.46 1012.72 1012.07 1011.57 1010.89 1010.01 1009.30 1008.71 1008.12 1007.23 1005.96 1004.82 1003.06 1001.39 1000.61 999.90 999.17 997.73 997.57 997.95 998.64
Thickness
5639 5637 5635 5633 5631 5630 5630 5630 5628 5627 5624 5620 5617 5614 5611 5610 5608 5604 5601 5600 5599 5597 5597 5596 5597 5596 5594 5597 5600 5594 5602 5611 5629 5635 5642 5653 5660 5664 5675 5684 5688 5685 5686
5628 5626 5624 5623 5622 5622 5621 5619 5619 5617 5615 5612 5610 5607 5604 5603 5601 5598 5596 5595 5592 5592 5592 5592 5592 5594 5595 5592 5589 5590 5596 5598 5613 5622 5624 5638 5647 5653 5663 5666 5676 5682 5684
5613 5612 5610 5610 5610 5610 5610 5610 5608 5606 5606 5605 5603 5598 5597 5597 5595 5593 5592 5593 5590 5589 5588 5587 5587 5587 5589 5585 5582 5582 5581 5587 5597 5605 5613 5622 5635 5645 5657 5657 5665 5675 5678
5599 5598 5598 5600 5601 5601 5601 5600 5599 5598 5595 5592 5591 5589 5589 5589 5588 5588 5589 5586 5582 5580 5579 5577 5574 5572 5571 5568 5566 5564 5564 5569 5577 5586 5597 5605 5616 5629 5639 5640 5649 5663 5667
5584 5585 5587 5590 5592 5591 5592 5591 5590 5585 5583 5582 5582 5583 5584 5582 5583 5581 5579 5576 5573 5571 5569 5568 5567 5564 5561 5556 5550 5547 5546 5549 5555 5563 5574 5584 5599 5610 5623 5630 5639 5651 5659
5569 5571 5576 5580 5579 5578 5578 5577 5575 5574 5574 5574 5576 5578 5577 5577 5578 5576 5573 5569 5567 5566 5565 5566 5562 5559 5554 5545 5537 5531 5525 5524 5526 5534 5547 5560 5576 5589 5602 5613 5626 5639 5639
5558 5562 5563 5563 5564 5564 5564 5565 5565 5566 5567 5569 5571 5571 5571 5571 5571 5570 5568 5566 5566 5563 5563 5561 5557 5551 5545 5537 5528 5520 5513 5512 5512 5517 5526 5539 5553 5569 5579 5590 5608 5626 5634
5545 5546 5548 5549 5551 5552 5552 5554 5557 5560 5561 5564 5566 5568 5567 5567 5567 5565 5563 5561 5562 5562 5560 5556 5551 5546 5539 5529 5522 5514 5508 5505 5504 5508 5515 5523 5534 5549 5560 5574 5588 5609 5628
5530 5531 5534 5536 5539 5541 5544 5547 5550 5553 5555 5559 5561 5562 5561 5563 5563 5559 5555 5557 5557 5557 5554 5552 5552 5548 5541 5527 5519 5516 5509 5506 5505 5504 5506 5510 5518 5532 5544 5556 5575 5591 5610
5517 5520 5522 5525 5528 5532 5537 5540 5544 5547 5550 5553 5554 5553 5554 5557 5555 5551 5547 5549 5552 5551 5549 5549 5549 5545 5538 5526 5516 5513 5511 5512 5507 5504 5505 5507 5511 5522 5535 5546 5562 5583 5600
5505 5507 5511 5516 5521 5526 5530 5535 5538 5543 5546 5548 5545 5547 5547 5547 5547 5545 5546 5543 5540 5539 5541 5547 5548 5545 5536 5528 5520 5515 5512 5511 5508 5502 5502 5503 5508 5516 5529 5542 5560 5575 5589
5495 5498 5503 5507 5512 5517 5521 5527 5533 5537 5540 5538 5540 5540 5540 5537 5539 5540 5540 5538 5537 5534 5542 5547 5552 5549 5540 5532 5526 5520 5512 5507 5503 5501 5498 5500 5504 5512 5524 5543 5560 5572 5590
5487 5489 5492 5497 5503 5508 5514 5515 5520 5525 5526 5530 5532 5530 5528 5530 5534 5533 5535 5537 5540 5537 5546 5553 5556 5554 5545 5538 5530 5520 5510 5506 5502 5499 5501 5502 5505 5514 5529 5545 5561 5570 5584
5477 5481 5484 5488 5494 5500 5501 5505 5503 5507 5512 5517 5522 5514 5516 5521 5524 5526 5528 5533 5540 5545 5550 5557 5561 5557 5549 5540 5534 5526 5517 5511 5505 5503 5506 5506 5511 5523 5538 5549 5559 5569 5580
5470 5473 5477 5482 5485 5488 5493 5495 5494 5498 5500 5503 5507 5503 5502 5508 5512 5512 5515 5525 5530 5533 5545 5552 5559 5564 5558 5550 5541 5534 5528 5518 5511 5512 5516 5520 5526 5533 5542 5552 5562 5572 5579
5464 5468 5470 5473 5476 5479 5481 5488 5490 5491 5495 5496 5497 5494 5496 5497 5504 5511 5519 5524 5528 5531 5537 5536 5543 5544 5550 5554 5548 5546 5543 5534 5527 5526 5529 5532 5538 5541 5548 5554 5564 5573 5581
5460 5464 5466 5469 5470 5473 5477 5480 5484 5489 5490 5489 5492 5492 5491 5492 5498 5504 5510 5515 5520 5529 5522 5521 5525 5525 5530 5535 5543 5544 5547 5551 5547 5539 5540 5542 5544 5550 5555 5564 5572 5575 5579
5457 5461 5464 5466 5465 5468 5472 5475 5478 5481 5483 5484 5484 5486 5488 5488 5490 5494 5498 5506 5515 5512 5507 5507 5509 5512 5514 5518 5523 5531 5541 5547 5550 5550 5548 5548 5553 5562 5566 5572 5578 5580 5582
5451 5454 5458 5462 5463 5466 5467 5469 5471 5473 5472 5472 5475 5479 5481 5481 5482 5485 5488 5490 5490 5491 5495 5495 5496 5500 5507 5506 5510 5515 5520 5526 5540 5546 5550 5555 5559 5567 5573 5577 5583 5583 5585
5446 5448 5452 5454 5457 5460 5462 5464 5466 5465 5465 5465 5465 5467 5472 5474 5478 5479 5478 5477 5478 5479 5483 5487 5489 5492 5499 5499 5500 5501 5507 5517 5526 5538 5550 5556 5561 5569 5579 5585 5587 5587 5589
5441 5443 5443 5444 5446 5447 5450 5451 5453 5455 5457 5456 5454 5457 5457 5461 5459 5462 5464 5466 5468 5470 5473 5478 5482 5486 5490 5494 5496 5498 5501 5504 5511 5523 5533 5547 5561 5566 5572 5581 5592 5593 5590
5433 5433 5433 5431 5434 5434 5435 5437 5437 5440 5443 5444 5446 5448 5447 5449 5450 5449 5452 5456 5458 5460 5464 5469 5473 5476 5481 5483 5489 5496 5498 5501 5507 5516 5521 5534 5557 5567 5575 5583 5588 5593 5593
5424 5423 5420 5420 5420 5420 5421 5422 5422 5424 5428 5429 5431 5434 5437 5435 5436 5437 5440 5443 5449 5454 5457 5462 5468 5471 5474 5475 5477 5485 5492 5497 5500 5508 5519 5534 5550 5561 5570 5578 5586 5590 5589
5415 5411 5407 5406 5406 5406 5406 5407 5406 5408 5412 5414 5415 5418 5422 5422 5423 5425 5428 5433 5437 5443 5449 5453 5457 5463 5468 5469 5470 5476 5483 5490 5501 5507 5520 5534 5551 5563 5572 5572 5581 5585 5585
5405 5401 5398 5397 5395 5397 5397 5396 5393 5394 5396 5398 5401 5403 5406 5409 5410 5413 5415 5421 5427 5432 5438 5443 5447 5452 5460 5466 5467 5473 5480 5495 5501 5516 5521 5534 5546 5560 5566 5583 5581 5584 5581
5397 5394 5391 5389 5388 5388 5387 5384 5382 5382 5382 5384 5386 5388 5391 5395 5397 5398 5402 5407 5414 5420 5426 5432 5438 5443 5449 5458 5463 5470 5477 5483 5496 5504 5519 5535 5542 5549 5556 5575 5579 5579 5577